Regional Weather Roundup
Issued by NWS

Home | Current Version | Previous Version | Graphics & Text | Print | Product List | Glossary On
Versions: 1 2 3 4 5 6 7 8 9 10 11 12 13 14 15 16 17 18 19 20 21 22 23 24 25 26 27 28 29 30 31 32 33 34 35 36 37 38 39 40 41 42 43 44 45 46 47 48 49 50
000
ASUS43 KIND 022259
RWRIN

WEATHER ROUNDUP FOR INDIANA
NATIONAL WEATHER SERVICE INDIANAPOLIS IN
600 PM EST FRI DEC 02 2016

NOTE: "FAIR" INDICATES FEW OR NO CLOUDS BELOW 12,000 FEET WITH NO
SIGNIFICANT WEATHER AND/OR OBSTRUCTIONS TO VISIBILITY.

* - STATION DOES NOT REPORT WEATHER SUCH AS PRECIPITATION OR FOG.

+ - STATION NOT QUALITY CONTROLLED BY THE NATIONAL WEATHER SERVICE.
    USE DATA WITH CAUTION...ESPECIALLY DEWPOINT AND RELATIVE
    HUMIDITY OBSERVATIONS.

INZ001>003-010>013-019-020-030000-
NORTHWEST INDIANA

CITY           SKY/WX    TMP DP  RH WIND       PRES   REMARKS
GARY /AIRPORT/ CLOUDY    41  28  60 W8        30.25R
MONTICELLO +   CLOUDY    38  30  72 W7        30.24R
VALPARAISO     CLOUDY    39  32  76 W6        30.24R

$$

LMZ046-743>745-030000-
SOUTHERN LAKE MICHIGAN

STATION/POSITION TIME  TEMP    WIND        PRES    WAVE
                       AIR SEA DIR/SP/G            HT
                 (UTC) (F)     (DEG/KT/KT) (MB)    (FT)
BURNS HARBOR     2240   40     300/ 11/ 14 1024.0R

$$

INZ004-005-014>016-021>024-030000-
NORTH CENTRAL INDIANA

CITY           SKY/WX    TMP DP  RH WIND       PRES   REMARKS
ELKHART        CLOUDY    37  27  65 W6        30.22R
GOSHEN         CLOUDY    36  28  73 NW6       30.22R
SOUTH BEND     CLOUDY    36  27  69 NW7       30.23R
WARSAW +       CLOUDY    36  30  80 NW5       30.22R

$$

INZ006>009-017-018-025>027-030000-
NORTHEAST INDIANA

CITY           SKY/WX    TMP DP  RH WIND       PRES   REMARKS
ANGOLA *+      CLOUDY    36  28  75 NW6       30.19R
FORT WAYNE     CLOUDY    38  31  76 W7        30.22R
KENDALLVILLE + CLOUDY    35  28  75 NW6       30.20R WCI  30

$$

INZ028-029-035-036-043>045-051>053-030000-
WEST CENTRAL INDIANA

CITY           SKY/WX    TMP DP  RH WIND       PRES   REMARKS
CRAWFORDSVL +  CLOUDY    37  34  89 W6        30.26R
GREENCASTLE +  CLOUDY    37  34  87 CALM      30.27R
LAFAYETTE      CLOUDY    37  34  89 W3        30.26R
TERRE HAUTE    CLOUDY    40  29  64 W6        30.29R

$$

INZ030>032-037>040-046>048-054>057-064-065-030000-
CENTRAL INDIANA

CITY           SKY/WX    TMP DP  RH WIND       PRES   REMARKS
COLUMBUS       CLOUDY    39  32  75 NW5       30.27R
GREENWOOD *+   CLOUDY    40  32  75 W8        30.26R
INDIANAPOLIS   CLOUDY    39  32  76 W7        30.26R
-EAGLE CREEK   CLOUDY    40  32  73 W8        30.25R
KOKOMO +       CLOUDY    38  32  79 W8        30.25R
SHELBYVILLE    CLOUDY    40  31  70 W7        30.25R
ZIONSVILLE +   CLOUDY    36  32  87 W6        30.26R

$$

INZ033-034-041-042-049-050-058-059-030000-
EAST CENTRAL INDIANA

CITY           SKY/WX    TMP DP  RH WIND       PRES   REMARKS
MUNCIE         CLOUDY    38  31  76 W8        30.24R

$$

INZ060-061-067>069-081>083-085>088-030000-
SOUTHWEST INDIANA

CITY           SKY/WX    TMP DP  RH WIND       PRES   REMARKS
EVANSVILLE     CLEAR     43  30  60 CALM      30.31R
HUNTINGBURG *+ CLOUDY    41  30  65 NW5       30.30R

$$

INZ062-063-066-070>080-084-089>092-030000-
SOUTH CENTRAL AND SOUTHEAST INDIANA

CITY           SKY/WX    TMP DP  RH WIND       PRES   REMARKS
BLOOMINGTON    CLOUDY    40  30  67 W6        30.27R
MADISON *+     CLOUDY    39  30  70 CALM      30.29R
SEYMOUR +      CLOUDY    41  32  70 W5        30.28R

$$





USA.gov is the U.S. government's official web portal to all federal, state and local government web resources and services.